Вернуться в каталог

STARLINK-36814

АктивенСвязьVLEO
NORAD 67904·PAYLOAD·🇺🇸 United States

Запущен Feb 22, 2026 с Vandenberg Space Force Base

Loading…

Ближайшие Пролёты (ближайшие 24 часа)

TLE

СвежийSource: CelesTrak SupGP

Эпоха: Sep 15, 2026, 03:18 UTC

1 67904C 26036A   26258.13798611 -.00022021  00000+0 -79772-3 0  2583
2 67904  42.9990 255.7952 0001361 267.1395 359.7933 15.27584454    15

Отслеживайте STARLINK-36814 в реальном времени с AllMySat

Download on the App Store